Погода в Изюме

Погода в Изюме : погода сейчас, прогноз погоды и архив. Всё, что Вы хотите узнать о погоде в Изюме!

Хотите узнать прогноз погоды в Изюме? Тогда Вам сюда: Погода в Изюме

Поиск расширенной информации на нашем сайте:

Другие новости

Новости СМИ2

Главная страница сайта

Новости сайта

02.10.2013

Напоминаем, что на нашем новом сайте вы можете получить высокодетализированные прогнозы погоды по пунктам России, СНГ и мира (включающие важные для авиации метеовеличины, такие как направление и скорость ветра, видимость, явления погоды, количество и форма облачности, нижняя и верхняя граница облачности), а также ознакомиться с разнообразными материалами по авиационной метеорологии и подборкой полезных ссылок на эту тему.

Сайт Метеоцентр.Азия посвящён разработке технологий оптимизации авиаметеорологического обслуживания, включая проектирование и перспективное создание нескольких автоматизированных авиаметеорологических систем:
- система выпуска высокодетальных прогностических карт явлений погоды для нижнего воздушного пространства по России и ближнему зарубежью;
- система верификации прогнозов TAF (выпускаемых синоптиками официальных АМСГ РФ и ближнего зарубежья) и AUTOTAF (выпускаемых сайтом Метеоцентр.Азия) - выявление ошибок, онлайн-сопоставление с фактической погодой METAR, автоматическое внесение коррективов в прогнозы при резком отклонении фактической погоды от прогноза, подсчёт оправдываемости прогнозов по элементам и в целом;
- система обработки, анализа и отображения авиаметеорологической информации для применения провайдерами метеорологической информации.


Погода в Изюме - сегодня

Время (UTC), дата Ветер
(°,м/с) 
Видим.   Явления Облачность Т
(°С)
Тd
(°С)
f(%) Тe
(°С)
Pmin
(гПа)
dP
(гПа)
Po
(мм)
O2
(г/м3)
Тmin Tmax R s Состояние
почвы
15 21.01.17 290 (З) 4000 м  слаб. снег  10/9 300 м средняя 
[Frnb|As op]
-1.7 -2.5 94 -4  1017.6  -0.2  756  307           
18 21.01.17 290 (З) 10 км  {снег, морось}  10/10 300 м 
[St]
-0.7 -2 91 -3  1018.3  0.7  756  306    -0.5  0.7     
21 21.01.17 320 (СЗ) 10 км  {снег}  10/10 300 м 
[St]
+0.4 -1.8 85 -2  1019.7  1.4  757  305           
00 22.01.17 320 (СЗ) 10 км  {снег}  ясно 
-1.5 -7.5 64 -3  1023.3  3.5  760  309      0.0     
03 22.01.17 340 (С) 10 км    ясно 
-5.5 -9.3 75 -7  1026.5  762  314           
06 22.01.17 тихо ()   20000 м    ясно 
-7.4 -10 82 -7  1029.7  3.1  765  318  -7.4    0.0  16  равномерный
мокрый или
старый снег
100% 
09 22.01.17 320 (СЗ) 20000 м    ясно 
-2.8 -8.5 65 -4  1030.6  765  312           
12 22.01.17 340 (С) 20000 м    ясно 
-0.1 -9.7 48 -1  1029.7  -0.7  765  309           
15 22.01.17 320 (СЗ) 10 км    ясно 
-4.6 -9.4 69 -6  1029.3  -0.6  764  314           
18 22.01.17 290 (З) 10 км    ясно 
-5.8 -8 84 -8  1028.5  -0.8  764  315    +0       
21 22.01.17 290 (З) 10 км    10/10 1000 м 
[Sc]
-3.8 -5.3 89 -6  1027.5  -0.9  763  312           
00 23.01.17 290 (З) 10 км    ясно 
-3.7 -5.5 87 -6  1027  -0.5  763  312           
03 23.01.17 290 (З) 10 км    ясно 
-4.9 -6.6 88 -6  1026.8  -0.3  762  314           
06 23.01.17 290 (З) 20000 м    10/6 1000 м средняя 
[Sc|As trans]
-4.6 -6.2 89 -6  1027.1  0.4  763  313  -5.8      16  равномерный
мокрый или
старый снег
100% 
09 23.01.17 290 (З) 20000 м    3/3 1000 м 
[Sc]
-1.8 -6 73 -5  1026.8  -0.2  763  310           
12 23.01.17 270 (З) 20000 м    3/0 верхняя 
[Ci fib]
+1.5 -4.8 63 1025.7  -1  762  306           
15 23.01.17 270 (З) 10 км    4/0 верхняя 
[Ci fib]
-1.4 -6.2 70 -2  1025.9  0.1  762  309           
18 23.01.17 270 (З) 10 км    ясно 
-2.3 -5.9 76 -3  1025.1  -0.8  761  310    +2.4       
21 23.01.17 270 (З) 10 км    ясно 
-4.2 -6.1 87 -5  1024.8  -0.4  761  312           
00 24.01.17 270 (З) 10 км    ясно 
-4.4 -6 89 -7  1023.6  -1.2  760  312           
03 24.01.17 270 (З) 10 км    3/0 верхняя 
[Ci fib]
-5 -6.3 91 -6  1021.9  -1.7  759  312           
06 24.01.17 270 (З) 12000 м    10/10 300 м 
[St]
-4.8 -5.8 93 -8  1021  -0.9  758  312  -5      15  равномерный
мокрый или
старый снег
100% 
09 24.01.17 290 (З) 20000 м    10/10 300 м 
[St]
-3 -5.4 83 -7  1019.7  -1.2  757  309           
12 24.01.17 270 (З) 20000 м    10/10 300 м 
[St]
-2.1 -5.3 79 -5  1017.7  -2  756  307           
15 24.01.17 290 (З) 10 км    10/10 300 м 
[St]
-1.7 -5.5 75 -4  1016.6  -1  755  307           
Время (UTC), дата Ветер
(°,м/с) 
Видим.   Явления Облачность Т
(°С)
Тd
(°С)
f(%) Тe
(°С)
Pmin
(гПа)
dP
(гПа)
Po
(мм)
O2
(г/м3)
Тmin Tmax R s Состояние
почвы

Для получения пояснительной информации подведите курсор к названию столбца.

ПОГОДА в Изюме - архив

Всё, что Вы хотите узнать о погоде в Изюме - удобно и подробно!

Выберите нужную дату (начиная с 1 января 2015* года) и нажмите кнопку "Найти".
Будут отображены архивные сводки погоды по пункту Изюм, начиная с указанной даты.


Отображать данные в формате CSV (для использования в таблицах Excel)


Внимание! Наш архив погоды предназначен исключительно для личного некоммерческого использования в познавательных целях. Если Вам необходимы официальные справки о состоянии погоды (для производственных, юридических, коммерческих и т.п. целей), обращайтесь в органы Росгидромета.

*Примечание: данная дата относится к архиву по метеостанциям СССР (Россия, СНГ, Балтия).
Архив по метеостанциям Зарубежной Европы и Азии (кроме Китая) хранится 10 дней, по другим регионам земного шара (Китай, Африка, Америка, Австралия, Океания) - 1 день.

Изюм - район местоположения метеостанции


Название, широта, долгота, высота метеостанции:
Изюм 49.2°ш. 37.3°д. 78 м над ур. моря [Украина]

Дополнительная информация

В oтличие oт бoльшинства пoгoдных сайтoв мы публикуем пoдрoбную метеoинфoрмацию в детальнoм прoфессиoнальнoм фoрмате.

Характеристики температуры и влажнoсти вoздуха измеряются на высoте 2 м в тени вдали oт зданий и деревьев.
Скoрoсть ветра измеряется на высoте 10 м (на урoвне рoста челoвека скoрoсть ветра ниже в 1.5-2 раза). Если метеoстанция нахoдится в гoрoде или в лесу, тo скoрoсть ветра занижена на 2-4 м/с пo сравнению с oткрытым местoм. Скoрoсть ветра над акватoриями крупных рек и oзёр, а также на вершинах хoлмoв на 2-5 м/с выше, чем в oбычных услoвиях.
Атмoсфернoе давление в разных тoчках местнoсти мoжет значительнo oтличаться oт давления на метеoстанции, в зависимoсти oт услoвий рельефа (при пoдъёме на 10 м давление пoнижается примернo на 1 мм рт.ст.).